Tracking 20621 objects as of 31-Mar-2020
HD Live streaming from Space Station
objects crossing your sky now

METEOR 2-17 DEB

Track METEOR 2-17 DEB now!
10-day predictions


NORAD ID: 35369
Int'l Code: 1988-005AD
Perigee: 915.8 km
Apogee: 945.0 km
Inclination: 82.5 °
Period: 103.5 minutes
Semi major axis: 7301 km
RCS: 0.003 m2 (small)
Launch date: January 30, 1988
Source: Commonwealth of Independent States (former USSR) (CIS)
Launch site: PLESETSK MISSILE AND SPACE COMPLEX (PKMTR)

Note: This is SATELLITE DEBRIS
aabbcc
Your satellite tracking list
Your tracking list is empty




NASA's NSSDC Master Catalog

Two Line Element Set (TLE):
1 35369U 88005AD  20087.39516383 -.00000056 +00000-0 -55690-4 0  9994
2 35369 082.5260 312.4478 0019978 336.6840 198.8846 13.91543780429172
Source of the keplerian elements: AFSPC